When you browse on this site, cookies collect data to enhance your experience and personalize the content and advertising you see.
Visit our Privacy Policy to learn more. By continuing to use the site, you agree to this use of cookies and data.
  • In Österreich
  • Länderverzeichnis
  • Für 7 Tage
  • Wassertemperatur
  • Satellitenkarten
  • Wetterkarte
  • News
  • Widgets
  • user-avatar
    Anmelden

    Stündliche Wetter Marrakesh

    Heute, 11 Dezember, Dienstag

    Zeit Temperatur Niederschläge Wind Luftdruck Luftfeuchtigkeit
    00:00 +14°C° 0 mm 0 m/S 727 mmHg 47%
    01:00 +13°C° 0 mm 0 m/S 727 mmHg 48%
    02:00 +13°C° 0 mm 0 m/S 726 mmHg 49%
    03:00 +13°C° 0 mm 0 m/S 726 mmHg 49%
    04:00 +12°C° 0 mm 0 m/S 726 mmHg 49%
    05:00 +12°C° 0 mm 0 m/S 726 mmHg 49%
    06:00 +13°C° 0 mm 0 m/S 726 mmHg 45%
    07:00 +15°C° 0 mm 0 m/S 727 mmHg 41%
    08:00 +16°C° 0 mm 0 m/S 727 mmHg 36%
    09:00 +20°C° 0 mm 1 m/S 727 mmHg 33%
    10:00 +21°C° 0 mm 1 m/S 727 mmHg 30%
    11:00 +22°C° 0 mm 1 m/S 727 mmHg 26%
    12:00 +21°C° 0 mm 2 m/S 727 mmHg 26%
    13:00 +21°C° 0 mm 2 m/S 727 mmHg 26%
    14:00 +21°C° 0 mm 2 m/S 726 mmHg 26%
    15:00 +20°C° 0 mm 2 m/S 726 mmHg 31%
    16:00 +19°C° 0 mm 2 m/S 726 mmHg 37%
    17:00 +18°C° 0 mm 1 m/S 726 mmHg 42%
    18:00 +18°C° 0 mm 1 m/S 726 mmHg 45%
    19:00 +16°C° 0 mm 1 m/S 726 mmHg 49%
    20:00 +15°C° 0 mm 1 m/S 726 mmHg 52%
    21:00 +15°C° 0 mm 1 m/S 726 mmHg 56%
    22:00 +14°C° 0 mm 1 m/S 726 mmHg 60%
    23:00 +14°C° 0 mm 1 m/S 726 mmHg 64%

    Morgen, 12 Dezember, Mittwoch

    Zeit Temperatur Niederschläge Wind Luftdruck Luftfeuchtigkeit
    00:00 +13°C° 0 mm 1 m/S 726 mmHg 64%
    01:00 +13°C° 0 mm 1 m/S 726 mmHg 64%
    02:00 +13°C° 0 mm 1 m/S 725 mmHg 65%
    03:00 +12°C° 0 mm 1 m/S 725 mmHg 66%
    04:00 +12°C° 0 mm 1 m/S 725 mmHg 67%
    05:00 +12°C° 0 mm 1 m/S 725 mmHg 68%
    06:00 +13°C° 0 mm 1 m/S 726 mmHg 63%
    07:00 +15°C° 0 mm 1 m/S 726 mmHg 58%
    08:00 +16°C° 0 mm 1 m/S 727 mmHg 53%
    09:00 +18°C° 0 mm 1 m/S 727 mmHg 47%
    10:00 +19°C° 0 mm 1 m/S 727 mmHg 42%
    11:00 +20°C° 0 mm 2 m/S 727 mmHg 36%
    12:00 +20°C° 0 mm 2 m/S 726 mmHg 34%
    13:00 +21°C° 0 mm 2 m/S 726 mmHg 33%
    14:00 +21°C° 0 mm 2 m/S 726 mmHg 31%
    15:00 +20°C° 0 mm 2 m/S 725 mmHg 34%
    16:00 +20°C° 0 mm 1 m/S 725 mmHg 38%
    17:00 +19°C° 0 mm 1 m/S 725 mmHg 41%
    18:00 +18°C° 0 mm 1 m/S 726 mmHg 45%
    19:00 +16°C° 0 mm 1 m/S 726 mmHg 48%
    20:00 +16°C° 0 mm 1 m/S 726 mmHg 52%
    21:00 +15°C° 0 mm 1 m/S 726 mmHg 54%
    22:00 +15°C° 0 mm 1 m/S 726 mmHg 56%
    23:00 +14°C° 0 mm 1 m/S 726 mmHg 58%

    übermorgen, 13 Dezember, Donnerstag

    Zeit Temperatur Niederschläge Wind Luftdruck Luftfeuchtigkeit
    00:00 +14°C° 0 mm 1 m/S 726 mmHg 62%
    01:00 +13°C° 0 mm 1 m/S 726 mmHg 66%
    02:00 +13°C° 0 mm 1 m/S 726 mmHg 69%
    03:00 +13°C° 0 mm 1 m/S 726 mmHg 67%
    04:00 +13°C° 0 mm 1 m/S 725 mmHg 64%
    05:00 +13°C° 0 mm 1 m/S 725 mmHg 61%
    06:00 +14°C° 0 mm 1 m/S 726 mmHg 57%
    07:00 +15°C° 0 mm 1 m/S 727 mmHg 52%
    08:00 +16°C° 0 mm 1 m/S 727 mmHg 47%
    09:00 +18°C° 0 mm 1 m/S 727 mmHg 45%
    10:00 +19°C° 0 mm 1 m/S 727 mmHg 42%
    11:00 +20°C° 0 mm 1 m/S 726 mmHg 39%
    12:00 +19°C° 0 mm 2 m/S 726 mmHg 37%
    13:00 +20°C° 0 mm 3 m/S 726 mmHg 35%
    14:00 +21°C° 0 mm 3 m/S 726 mmHg 33%
    15:00 +20°C° 0 mm 3 m/S 726 mmHg 39%
    16:00 +19°C° 0 mm 2 m/S 726 mmHg 45%
    17:00 +18°C° 0 mm 2 m/S 726 mmHg 51%
    18:00 +17°C° 0 mm 2 m/S 727 mmHg 53%
    19:00 +16°C° 0 mm 2 m/S 727 mmHg 56%
    20:00 +16°C° 0 mm 2 m/S 727 mmHg 59%
    21:00 +15°C° 0 mm 2 m/S 727 mmHg 60%
    22:00 +15°C° 0 mm 2 m/S 727 mmHg 62%
    23:00 +14°C° 0 mm 2 m/S 727 mmHg 63%

    14 Dezember, Freitag

    Zeit Temperatur Niederschläge Wind Luftdruck Luftfeuchtigkeit
    00:00 +14°C° 0 mm 2 m/S 726 mmHg 65%
    01:00 +13°C° 0 mm 3 m/S 726 mmHg 66%
    02:00 +12°C° 0 mm 3 m/S 726 mmHg 67%
    03:00 +12°C° 0 mm 3 m/S 726 mmHg 69%
    04:00 +12°C° 0 mm 3 m/S 726 mmHg 71%
    05:00 +11°C° 0 mm 4 m/S 726 mmHg 73%
    06:00 +12°C° 0 mm 4 m/S 726 mmHg 69%
    07:00 +13°C° 0 mm 4 m/S 727 mmHg 65%
    08:00 +13°C° 0 mm 4 m/S 727 mmHg 61%
    09:00 +14°C° 0 mm 4 m/S 727 mmHg 55%
    10:00 +16°C° 0 mm 5 m/S 727 mmHg 50%
    11:00 +17°C° 0 mm 5 m/S 727 mmHg 44%
    12:00 +17°C° 0 mm 5 m/S 727 mmHg 43%
    13:00 +19°C° 0 mm 5 m/S 727 mmHg 41%
    14:00 +19°C° 0 mm 5 m/S 726 mmHg 39%
    15:00 +17°C° 0 mm 5 m/S 726 mmHg 42%
    16:00 +17°C° 0 mm 4 m/S 726 mmHg 45%
    17:00 +15°C° 0 mm 4 m/S 727 mmHg 48%
    18:00 +15°C° 0 mm 4 m/S 727 mmHg 49%
    19:00 +15°C° 0 mm 4 m/S 727 mmHg 50%
    20:00 +14°C° 0 mm 4 m/S 728 mmHg 51%
    21:00 +14°C° 0 mm 3 m/S 727 mmHg 51%
    22:00 +13°C° 0 mm 3 m/S 727 mmHg 52%
    23:00 +13°C° 0 mm 3 m/S 727 mmHg 52%

    15 Dezember, Samstag

    Zeit Temperatur Niederschläge Wind Luftdruck Luftfeuchtigkeit
    00:00 +13°C° 0 mm 3 m/S 727 mmHg 52%
    01:00 +14°C° 0 mm 2 m/S 727 mmHg 53%
    02:00 +13°C° 0 mm 2 m/S 726 mmHg 53%
    03:00 +13°C° 0 mm 2 m/S 726 mmHg 54%
    04:00 +13°C° 0 mm 2 m/S 726 mmHg 55%
    05:00 +12°C° 0 mm 2 m/S 726 mmHg 56%
    06:00 +14°C° 0 mm 2 m/S 727 mmHg 52%
    07:00 +15°C° 0 mm 2 m/S 727 mmHg 47%
    08:00 +16°C° 0 mm 2 m/S 728 mmHg 43%
    09:00 +18°C° 0 mm 2 m/S 728 mmHg 37%
    10:00 +20°C° 0 mm 2 m/S 728 mmHg 32%
    11:00 +21°C° 0 mm 2 m/S 728 mmHg 27%
    12:00 +23°C° 0 mm 2 m/S 728 mmHg 26%
    13:00 +23°C° 0 mm 2 m/S 727 mmHg 25%
    14:00 +24°C° 0 mm 2 m/S 727 mmHg 24%
    15:00 +21°C° 0 mm 2 m/S 727 mmHg 28%
    16:00 +21°C° 0 mm 1 m/S 727 mmHg 32%
    17:00 +19°C° 0 mm 1 m/S 727 mmHg 37%
    18:00 +19°C° 0 mm 1 m/S 727 mmHg 38%
    19:00 +18°C° 0 mm 1 m/S 727 mmHg 39%
    20:00 +16°C° 0 mm 0 m/S 728 mmHg 40%
    21:00 +16°C° 0 mm 1 m/S 728 mmHg 40%
    22:00 +16°C° 0 mm 1 m/S 728 mmHg 41%
    23:00 +16°C° 0 mm 1 m/S 728 mmHg 41%

    16 Dezember, Sonntag

    Zeit Temperatur Niederschläge Wind Luftdruck Luftfeuchtigkeit
    00:00 +15°C° 0 mm 1 m/S 727 mmHg 41%
    01:00 +15°C° 0 mm 1 m/S 727 mmHg 42%
    02:00 +15°C° 0 mm 1 m/S 727 mmHg 43%
    03:00 +14°C° 0 mm 1 m/S 727 mmHg 44%
    04:00 +14°C° 0 mm 1 m/S 727 mmHg 45%
    05:00 +14°C° 0 mm 1 m/S 727 mmHg 47%
    06:00 +15°C° 0 mm 1 m/S 728 mmHg 43%
    07:00 +18°C° 0 mm 1 m/S 728 mmHg 40%
    08:00 +19°C° 0 mm 1 m/S 729 mmHg 37%
    09:00 +20°C° 0 mm 2 m/S 729 mmHg 33%
    10:00 +21°C° 0 mm 2 m/S 729 mmHg 29%
    11:00 +24°C° 0 mm 2 m/S 729 mmHg 26%
    12:00 +24°C° 0 mm 2 m/S 729 mmHg 25%
    13:00 +24°C° 0 mm 3 m/S 728 mmHg 25%
    14:00 +25°C° 0 mm 3 m/S 728 mmHg 24%
    15:00 +23°C° 0 mm 2 m/S 728 mmHg 28%
    16:00 +21°C° 0 mm 2 m/S 728 mmHg 32%
    17:00 +20°C° 0 mm 1 m/S 728 mmHg 36%
    18:00 +19°C° 0 mm 1 m/S 729 mmHg 39%
    19:00 +18°C° 0 mm 1 m/S 729 mmHg 42%
    20:00 +18°C° 0 mm 1 m/S 729 mmHg 45%
    21:00 +15°C° 0 mm 0 m/S 729 mmHg 47%
    22:00 +15°C° 0 mm 0 m/S 729 mmHg 49%
    23:00 +14°C° 0 mm 0 m/S 729 mmHg 50%
    Mehr zeigen